Regional Weather Roundup
Issued by NWS

Home | Current Version | Previous Version | Graphics & Text | Print | Product List | Glossary On
Versions: 1 2 3 4 5 6 7 8 9 10 11 12 13 14 15 16 17 18 19 20 21 22 23 24 25 26 27 28
000
ASUS45 KBOI 280610
RWRID

IDAHO REGIONAL WEATHER ROUNDUP
NATIONAL WEATHER SERVICE BOISE ID
1100 PM MST MON FEB 27 2017

NOTE: "FAIR" INDICATES FEW OR NO CLOUDS BELOW 12000 FEET
WITH NO SIGNIFICANT WEATHER AND/OR OBSTRUCTIONS TO VISIBILITY

IDZ012-014-280700-
SOUTHWEST IDAHO


CITY           SKY/WX    TMP DP  RH WIND       PRES   REMARKS
BOISE          CLOUDY    32  22  66 SE10G21   29.79S WCI  24
CALDWELL       CLOUDY    32  26  78 SE14      29.79S WCI  22
MOUNTAIN HOME  CLOUDY    29  29 100 E13       29.80F WCI  18
$$

IDZ016-017-280700-
SOUTHCENTRAL IDAHO


CITY           SKY/WX    TMP DP  RH WIND       PRES   REMARKS
BURLEY         MOCLDY    25  14  63 SW6       29.79F WCI  18
JEROME         PTCLDY    20  12  71 SE5       29.80F WCI  13
TWIN FALLS     MOCLDY    22  11  62 S13       29.79F WCI  10
$$

IDZ019>023-280700-
SOUTHEAST IDAHO


CITY           SKY/WX    TMP DP  RH WIND       PRES   REMARKS
IDAHO FALLS    CLEAR     15  12  88 SW7       29.78R WCI   5
POCATELLO      CLOUDY    22  13  68 S10       29.80S WCI  11
REXBURG        CLEAR     20  15  81 SW18G30   29.74R WCI   5
$$

IDZ006-010-011-018-031-032-280700-
CENTRAL IDAHO MOUNTAINS


CITY           SKY/WX    TMP DP  RH WIND       PRES   REMARKS
MCCALL         LGT SNOW  21  17  84 SE8       29.62F VSB 1   WCI  11
HAILEY         CLOUDY    16   9  73 CALM      29.76F
STANLEY          N/A     16   8  71 SE7       29.65F WCI   6
SALMON         CLOUDY    23  14  68 SW3       29.68S
CHALLIS        PTCLDY    21   9  59 S8        29.68S WCI  11
$$

IDZ002-004-006-007-026-280700-
NORTHERN IDAHO


CITY           SKY/WX    TMP DP  RH WIND       PRES   REMARKS
LEWISTON       CLOUDY    34  31  88 CALM      29.68F
LOWELL         NOT AVBL
COEUR D`ALENE  CLOUDY    29  28  96 SE5       29.60F WCI  24
MULLAN PASS    LGT SNOW  16  15  96 VRB3      29.46S VSB 1
$$




USA.gov is the U.S. government's official web portal to all federal, state and local government web resources and services.